Location: La Chapelle
(48.3135°N, 1.3085°W)
Time: 10:38:49
(UTC+00:00)

USA 308 - Pass Details

Date: 03 March 2021
Orbit: 571 x 574 km, 54.0° (Epoch: 10 April)

Event Time Altitude Azimuth Distance (km) Brightness Sun altitude
Rises 20:05:33 0° 289° (WNW) 2,781 7.9 -22.7°
Reaches altitude 10° 20:07:55 10° 297° (WNW) 1,882 6.6 -23.1°
Maximum altitude 20:11:59 40° 8° (N) 850 3.8 -23.7°
Enters shadow 20:12:07 40° 14° (NNE) 852 3.7 -23.7°
